BAW65NE EGKK-NZAA

Flight info

Callsign BAW65NE
Flight time N/A
Altitude 33000
Route FRANE M604 LARGA DCT OKMAM P850 DANKO M604 SVA M609 ULMUG M125 ELVOM DCT GEVRU DCT ASVOB DCT DIVEG Y71 BAVMO M130 GATRI/K0922F330 M130 ODIMA T567 DAMNU/K0915F350 T567 NRM L168 RUKOL/K0896F370 L168 IGROD/N0484F390 Y301 VIROP/N0477F380 Y307 VIKET/N0476F390 Y303 SASAP/N0484F380 Y10 DAIGO/N0480F390 Y108 INUBO Y820 DAGDA G223 TONIK B452 KERRY/N0481F410 B452 HN A597 DUGAN
Aircraft A359/H-SDE2E3GHIJ3J4J5LM1ORWXY/LB1D1

Departure

Time 2026-05-05 20:16
Airport London Gatwick Airport (EGKK)

Arrival

Time N/A
Airport Auckland International Airport (NZAA)
Time Latitude Longitude Altitude Speed Heading
2026-05-05 19:18 51.15823 -0.17630 218 ft 0 kts 347°
2026-05-05 19:50 51.15810 -0.17626 219 ft 3 kts 347°
2026-05-05 19:50 51.15792 -0.17620 216 ft 3 kts 339°
2026-05-05 19:50 51.15775 -0.17603 219 ft 3 kts 298°
2026-05-05 19:50 51.15769 -0.17574 222 ft 1 kts 263°
2026-05-05 19:59 51.15767 -0.17589 222 ft 5 kts 256°
2026-05-05 19:59 51.15741 -0.17683 220 ft 14 kts 251°
2026-05-05 19:59 51.15717 -0.17842 218 ft 14 kts 258°
2026-05-05 19:59 51.15695 -0.17998 217 ft 15 kts 256°
2026-05-05 20:00 51.15672 -0.18172 222 ft 17 kts 258°
2026-05-05 20:00 51.15623 -0.18340 219 ft 16 kts 206°
2026-05-05 20:00 51.15521 -0.18327 217 ft 14 kts 168°
2026-05-05 20:00 51.15420 -0.18292 219 ft 16 kts 169°
2026-05-05 20:01 51.15293 -0.18248 220 ft 20 kts 167°
2026-05-05 20:01 51.15269 -0.18240 219 ft 0 kts 167°
2026-05-05 20:01 51.15268 -0.18239 211 ft 1 kts 167°
2026-05-05 20:02 51.15218 -0.18238 217 ft 13 kts 198°
2026-05-05 20:02 51.15176 -0.18416 218 ft 24 kts 257°
2026-05-05 20:02 51.15132 -0.18733 215 ft 35 kts 255°
2026-05-05 20:02 51.15093 -0.19013 220 ft 14 kts 257°
2026-05-05 20:03 51.15090 -0.19034 218 ft 0 kts 257°
2026-05-05 20:03 51.15079 -0.19113 217 ft 17 kts 257°
2026-05-05 20:03 51.15062 -0.19234 211 ft 12 kts 257°
2026-05-05 20:03 51.15040 -0.19399 218 ft 19 kts 258°
2026-05-05 20:04 51.15007 -0.19643 213 ft 26 kts 257°
2026-05-05 20:04 51.14963 -0.19960 216 ft 31 kts 257°
2026-05-05 20:04 51.14916 -0.20288 217 ft 30 kts 257°
2026-05-05 20:04 51.14873 -0.20607 218 ft 29 kts 258°
2026-05-05 20:05 51.14831 -0.20912 218 ft 28 kts 258°
2026-05-05 20:05 51.14784 -0.21200 220 ft 26 kts 253°
2026-05-05 20:05 51.14740 -0.21389 222 ft 1 kts 214°
2026-05-05 20:05 51.14739 -0.21390 222 ft 0 kts 211°
2026-05-05 20:11 51.14722 -0.21397 222 ft 8 kts 192°
2026-05-05 20:11 51.14671 -0.21369 219 ft 5 kts 149°
2026-05-05 20:11 51.14669 -0.21368 220 ft 0 kts 149°
2026-05-05 20:11 51.14669 -0.21367 220 ft 1 kts 149°
2026-05-05 20:12 51.14631 -0.21340 221 ft 10 kts 161°
2026-05-05 20:12 51.14621 -0.21335 222 ft 0 kts 164°
2026-05-05 20:14 51.14614 -0.21332 222 ft 5 kts 164°
2026-05-05 20:14 51.14544 -0.21269 218 ft 18 kts 133°
2026-05-05 20:14 51.14529 -0.21106 221 ft 0 kts 80°
2026-05-05 20:15 51.14537 -0.21040 220 ft 25 kts 79°
2026-05-05 20:15 51.14624 -0.20415 218 ft 90 kts 78°
2026-05-05 20:15 51.14802 -0.19129 221 ft 147 kts 77°
2026-05-05 20:16 51.15054 -0.17368 491 ft 169 kts 77°
2026-05-05 20:16 51.15328 -0.15538 1158 ft 173 kts 76°
2026-05-05 20:16 51.15641 -0.13679 1771 ft 170 kts 73°
2026-05-05 20:16 51.15961 -0.11899 2139 ft 171 kts 77°
2026-05-05 20:17 51.16186 -0.09975 2304 ft 183 kts 79°
2026-05-05 20:17 51.16414 -0.07918 2515 ft 194 kts 78°
2026-05-05 20:17 51.16681 -0.05734 2733 ft 207 kts 77°
2026-05-05 20:17 51.16897 -0.03383 2886 ft 224 kts 86°
2026-05-05 20:18 51.16886 -0.00830 3143 ft 237 kts 90°
2026-05-05 20:18 51.16824 0.01850 3572 ft 246 kts 89°
2026-05-05 20:18 51.16766 0.04574 4005 ft 252 kts 89°
2026-05-05 20:18 51.16709 0.07392 4502 ft 257 kts 89°
2026-05-05 20:19 51.16654 0.10251 5015 ft 261 kts 89°
2026-05-05 20:19 51.16599 0.13160 5509 ft 265 kts 89°
2026-05-05 20:19 51.16541 0.16112 6030 ft 268 kts 89°
2026-05-05 20:19 51.16536 0.19095 6580 ft 270 kts 86°
2026-05-05 20:20 51.16554 0.22096 7076 ft 273 kts 87°
2026-05-05 20:20 51.16568 0.25130 7581 ft 275 kts 87°
2026-05-05 20:20 51.16579 0.28185 8098 ft 277 kts 87°
2026-05-05 20:20 51.16585 0.31220 8604 ft 279 kts 88°
2026-05-05 20:21 51.16592 0.34339 9102 ft 282 kts 88°
2026-05-05 20:21 51.16599 0.37473 9610 ft 285 kts 88°
2026-05-05 20:21 51.16600 0.40582 10083 ft 288 kts 88°
2026-05-05 20:21 51.16600 0.43776 10528 ft 290 kts 88°
2026-05-05 20:22 51.16599 0.47005 10897 ft 295 kts 88°
2026-05-05 20:22 51.16780 0.50308 11102 ft 305 kts 74°
2026-05-05 20:22 51.17717 0.53357 11303 ft 312 kts 49°
2026-05-05 20:22 51.19430 0.55490 11511 ft 319 kts 23°
2026-05-05 20:23 51.21544 0.56531 11733 ft 328 kts 13°
2026-05-05 20:23 51.23803 0.57335 11959 ft 338 kts 12°
2026-05-05 20:23 51.26129 0.58168 12188 ft 347 kts 13°
2026-05-05 20:23 51.28516 0.59040 12397 ft 357 kts 13°
2026-05-05 20:24 51.30955 0.59941 12686 ft 362 kts 13°
2026-05-05 20:24 51.33424 0.60853 12937 ft 367 kts 13°
2026-05-05 20:24 51.35929 0.61791 13270 ft 372 kts 13°
2026-05-05 20:24 51.38418 0.62725 13718 ft 373 kts 13°
2026-05-05 20:25 51.40955 0.63678 14019 ft 378 kts 13°
2026-05-05 20:25 51.43523 0.64649 14408 ft 379 kts 13°
2026-05-05 20:25 51.46089 0.65624 14813 ft 380 kts 13°
2026-05-05 20:25 51.48677 0.66608 15140 ft 384 kts 13°
2026-05-05 20:26 51.51275 0.67598 15610 ft 384 kts 13°
2026-05-05 20:26 51.53887 0.68593 15948 ft 388 kts 13°
2026-05-05 20:26 51.56521 0.69597 16363 ft 389 kts 13°
2026-05-05 20:26 51.59125 0.70588 16723 ft 392 kts 13°
2026-05-05 20:27 51.61791 0.71598 17029 ft 396 kts 13°
2026-05-05 20:27 51.64480 0.72621 17471 ft 397 kts 13°
2026-05-05 20:27 51.67179 0.73650 17831 ft 400 kts 13°
2026-05-05 20:27 51.69889 0.74685 18252 ft 401 kts 13°
2026-05-05 20:28 51.72612 0.75731 18577 ft 404 kts 17°
2026-05-05 20:28 51.75350 0.76822 18880 ft 406 kts 13°
2026-05-05 20:28 51.78105 0.77879 19232 ft 408 kts 13°
2026-05-05 20:28 51.80812 0.79104 19522 ft 411 kts 21°
2026-05-05 20:29 51.83320 0.81373 19655 ft 419 kts 39°
2026-05-05 20:29 51.85428 0.84646 19973 ft 421 kts 43°
2026-05-05 20:29 51.87627 0.87791 20307 ft 423 kts 40°
2026-05-05 20:29 51.89876 0.90874 20668 ft 424 kts 40°
2026-05-05 20:30 51.92129 0.93981 20987 ft 427 kts 40°
2026-05-05 20:30 51.94383 0.97125 21322 ft 429 kts 40°
2026-05-05 20:30 51.96634 1.00318 21745 ft 428 kts 40°
2026-05-05 20:30 51.98832 1.03481 22106 ft 430 kts 41°
2026-05-05 20:31 52.01065 1.06722 22400 ft 433 kts 41°
2026-05-05 20:31 52.03309 1.10000 22718 ft 435 kts 41°
2026-05-05 20:31 52.05628 1.13181 22925 ft 440 kts 37°
2026-05-05 20:31 52.08061 1.16264 23124 ft 444 kts 37°
2026-05-05 20:32 52.10523 1.19307 23461 ft 446 kts 36°
2026-05-05 20:32 52.13005 1.22342 23749 ft 447 kts 36°
2026-05-05 20:32 52.15454 1.25484 23991 ft 450 kts 38°
2026-05-05 20:32 52.17868 1.28744 24247 ft 452 kts 40°
2026-05-05 20:33 52.20228 1.32037 24491 ft 454 kts 40°
2026-05-05 20:33 52.22624 1.35410 24734 ft 456 kts 40°
2026-05-05 20:33 52.25039 1.38791 24982 ft 459 kts 40°
2026-05-05 20:33 52.27474 1.42171 25230 ft 461 kts 40°
2026-05-05 20:34 52.29936 1.45563 25350 ft 466 kts 39°
2026-05-05 20:34 52.32426 1.48995 25525 ft 469 kts 41°
2026-05-05 20:34 52.34790 1.52679 25908 ft 468 kts 45°
2026-05-05 20:34 52.37066 1.56394 26145 ft 470 kts 45°
2026-05-05 20:35 52.39364 1.60210 26358 ft 472 kts 46°
2026-05-05 20:35 52.41662 1.64069 26596 ft 474 kts 46°
2026-05-05 20:35 52.43962 1.67953 26831 ft 476 kts 46°
2026-05-05 20:35 52.46273 1.71865 27050 ft 478 kts 46°
2026-05-05 20:36 52.48592 1.75793 27278 ft 480 kts 46°
2026-05-05 20:36 52.50919 1.79739 27496 ft 482 kts 46°
2026-05-05 20:36 52.53260 1.83711 27608 ft 487 kts 46°
2026-05-05 20:36 52.55632 1.87740 27803 ft 490 kts 46°
2026-05-05 20:37 52.57970 1.91711 28050 ft 491 kts 46°
2026-05-05 20:37 52.59572 1.94432 28214 ft 492 kts 46°
2026-05-05 20:37 52.62735 1.99827 28488 ft 495 kts 46°
2026-05-05 20:37 52.65126 2.03917 28711 ft 496 kts 46°
2026-05-05 20:38 52.67522 2.08024 28922 ft 498 kts 47°
2026-05-05 20:38 52.69925 2.12150 29116 ft 500 kts 47°
2026-05-05 20:38 52.72334 2.16291 29407 ft 500 kts 47°
2026-05-05 20:38 52.74735 2.20426 29693 ft 500 kts 47°
2026-05-05 20:39 52.77144 2.24580 29800 ft 503 kts 47°
2026-05-05 20:39 52.79565 2.28762 30015 ft 504 kts 47°
2026-05-05 20:39 52.81951 2.32889 30278 ft 503 kts 47°
2026-05-05 20:39 52.84368 2.37077 30547 ft 501 kts 47°
2026-05-05 20:40 52.86768 2.41243 30805 ft 500 kts 47°
2026-05-05 20:40 52.89164 2.45409 31030 ft 499 kts 47°
2026-05-05 20:40 52.91554 2.49573 31255 ft 499 kts 47°
2026-05-05 20:40 52.93945 2.53746 31457 ft 498 kts 47°
2026-05-05 20:41 52.96355 2.57875 31606 ft 499 kts 44°
2026-05-05 20:41 52.98979 2.61524 31765 ft 500 kts 35°
2026-05-05 20:41 53.01930 2.64570 31860 ft 501 kts 28°
2026-05-05 20:41 53.05005 2.67287 32000 ft 501 kts 26°
2026-05-05 20:42 53.08121 2.69917 32198 ft 500 kts 26°
2026-05-05 20:42 53.11226 2.72482 32367 ft 500 kts 26°
2026-05-05 20:42 53.14351 2.75049 32536 ft 499 kts 26°
2026-05-05 20:42 53.17459 2.77609 32696 ft 499 kts 26°
2026-05-05 20:43 53.20532 2.80154 32841 ft 499 kts 26°
2026-05-05 20:43 53.23637 2.82738 32965 ft 499 kts 26°
2026-05-05 20:43 53.26740 2.85332 32960 ft 498 kts 26°
2026-05-05 20:44 53.32927 2.90517 32958 ft 497 kts 26°
2026-05-05 20:44 53.39098 2.95720 32955 ft 497 kts 26°
2026-05-05 20:45 53.48326 3.03536 32958 ft 497 kts 26°
2026-05-05 20:45 53.54495 3.08776 32960 ft 497 kts 26°
2026-05-05 20:46 53.60682 3.14048 32967 ft 499 kts 26°
2026-05-05 20:46 53.66896 3.19360 32961 ft 502 kts 26°
2026-05-05 20:47 53.73269 3.24178 32964 ft 501 kts 21°
2026-05-05 20:47 53.79675 3.28534 32969 ft 500 kts 21°
2026-05-05 20:48 53.86111 3.33000 32969 ft 500 kts 21°
2026-05-05 20:48 53.92516 3.37567 32966 ft 500 kts 22°
2026-05-05 20:49 53.98924 3.42190 32965 ft 499 kts 21°
2026-05-05 20:49 54.05294 3.46802 32964 ft 498 kts 21°
2026-05-05 20:50 54.11631 3.51400 32962 ft 498 kts 21°
2026-05-05 20:50 54.17999 3.56033 32965 ft 498 kts 21°
2026-05-05 20:51 54.24363 3.60681 32966 ft 497 kts 21°
2026-05-05 20:51 54.30741 3.65353 32965 ft 500 kts 21°
2026-05-05 20:52 54.37014 3.70520 32964 ft 507 kts 26°
2026-05-05 20:52 54.43254 3.76288 32960 ft 512 kts 27°
2026-05-05 20:53 54.49569 3.82080 32964 ft 517 kts 26°
2026-05-05 20:53 54.55975 3.87850 32967 ft 522 kts 26°
2026-05-05 20:54 54.62412 3.93623 32967 ft 527 kts 26°
2026-05-05 20:54 54.68927 3.99485 32987 ft 529 kts 26°
2026-05-05 20:55 54.75432 4.05366 32965 ft 526 kts 26°
2026-05-05 20:55 54.81912 4.11248 32963 ft 525 kts 26°
2026-05-05 20:56 54.88269 4.17508 32963 ft 526 kts 31°
2026-05-05 20:56 54.94422 4.24377 32984 ft 526 kts 32°
2026-05-05 20:57 55.00521 4.31321 32963 ft 522 kts 32°
2026-05-05 20:57 55.06599 4.38274 32957 ft 522 kts 32°
2026-05-05 20:58 55.12680 4.45242 32969 ft 525 kts 32°
2026-05-05 20:58 55.18751 4.52218 32990 ft 526 kts 32°
2026-05-05 20:59 55.24852 4.59257 32965 ft 524 kts 32°
2026-05-05 20:59 55.30932 4.66294 32977 ft 524 kts 32°
2026-05-05 21:00 55.37006 4.73353 32977 ft 524 kts 32°
2026-05-05 21:00 55.43085 4.80443 33003 ft 524 kts 32°
2026-05-05 21:01 55.49158 4.87555 32991 ft 525 kts 31°
2026-05-05 21:01 55.55254 4.94718 32992 ft 526 kts 32°
2026-05-05 21:02 55.61337 5.01894 32997 ft 526 kts 32°
2026-05-05 21:02 55.67426 5.09105 32996 ft 526 kts 32°
2026-05-05 21:03 55.73512 5.16340 33003 ft 528 kts 31°
2026-05-05 21:03 55.79625 5.23633 33002 ft 530 kts 31°
2026-05-05 21:04 55.85742 5.30961 33001 ft 530 kts 31°
2026-05-05 21:04 55.90822 5.37070 33005 ft 530 kts 31°
2026-05-05 21:05 55.96980 5.44499 33007 ft 530 kts 31°
2026-05-05 21:05 56.03041 5.51840 33013 ft 530 kts 31°
2026-05-05 21:06 56.09138 5.59253 33012 ft 530 kts 32°
2026-05-05 21:06 56.15242 5.66703 33013 ft 530 kts 32°
2026-05-05 21:07 56.21342 5.74179 33014 ft 531 kts 31°
2026-05-05 21:07 56.27449 5.81689 33012 ft 533 kts 31°
2026-05-05 21:08 56.33560 5.89237 33014 ft 533 kts 31°
2026-05-05 21:08 56.39687 5.96834 33018 ft 533 kts 31°
2026-05-05 21:09 56.45787 6.04429 33019 ft 534 kts 31°
2026-05-05 21:09 56.51919 6.12092 33017 ft 536 kts 31°
2026-05-05 21:10 56.58063 6.19801 33016 ft 537 kts 31°
2026-05-05 21:10 56.64161 6.27485 33016 ft 537 kts 31°
2026-05-05 21:11 56.70327 6.35287 33022 ft 537 kts 31°
2026-05-05 21:11 56.76423 6.43028 33004 ft 537 kts 31°
2026-05-05 21:12 56.82552 6.50844 33009 ft 538 kts 31°
2026-05-05 21:12 56.88707 6.58652 33008 ft 536 kts 28°
2026-05-05 21:13 56.95215 6.65229 33032 ft 533 kts 23°
2026-05-05 21:13 57.01788 6.71527 33010 ft 534 kts 24°
2026-05-05 21:14 57.08233 6.78343 33012 ft 536 kts 27°
2026-05-05 21:14 57.14614 6.85464 32996 ft 536 kts 27°
2026-05-05 21:15 57.21013 6.92548 33019 ft 536 kts 26°
2026-05-05 21:15 57.27410 6.99571 33001 ft 535 kts 26°
2026-05-05 21:16 57.33816 7.06603 33003 ft 535 kts 26°
2026-05-05 21:16 57.40211 7.13652 32996 ft 535 kts 26°
2026-05-05 21:17 57.46611 7.20742 32987 ft 536 kts 26°
2026-05-05 21:17 57.53005 7.27854 32990 ft 536 kts 26°
2026-05-05 21:18 57.59372 7.34967 32990 ft 537 kts 26°
2026-05-05 21:18 57.65767 7.42142 32993 ft 537 kts 26°
2026-05-05 21:19 57.72166 7.49352 33011 ft 537 kts 26°
2026-05-05 21:19 57.78569 7.56595 32983 ft 538 kts 26°
2026-05-05 21:20 57.84964 7.63859 32981 ft 538 kts 26°
2026-05-05 21:20 57.91367 7.71163 32978 ft 538 kts 26°
2026-05-05 21:21 57.97757 7.78483 33002 ft 538 kts 26°
2026-05-05 21:21 58.04159 7.85848 32979 ft 539 kts 26°
2026-05-05 21:22 58.10417 7.93713 32953 ft 544 kts 32°
2026-05-05 21:22 58.16452 8.02344 32969 ft 544 kts 33°
2026-05-05 21:23 58.22455 8.11108 33017 ft 544 kts 32°
2026-05-05 21:23 58.28455 8.19912 32968 ft 545 kts 32°
2026-05-05 21:24 58.34454 8.28739 32972 ft 545 kts 32°
2026-05-05 21:24 58.40457 8.37603 32979 ft 545 kts 33°
2026-05-05 21:25 58.46447 8.46485 32983 ft 546 kts 33°
2026-05-05 21:25 58.52444 8.55416 32976 ft 546 kts 33°
2026-05-05 21:26 58.58425 8.64363 32976 ft 546 kts 33°
2026-05-05 21:26 58.64404 8.73346 32974 ft 546 kts 33°
2026-05-05 21:27 58.70343 8.82312 32980 ft 546 kts 33°
2026-05-05 21:27 58.76308 8.91359 32973 ft 546 kts 33°
2026-05-05 21:28 58.82285 9.00460 32969 ft 547 kts 33°
2026-05-05 21:28 58.88251 9.09585 32971 ft 547 kts 33°
2026-05-05 21:29 58.94221 9.18761 32966 ft 548 kts 33°
2026-05-05 21:29 59.00184 9.27970 32988 ft 548 kts 33°
2026-05-05 21:30 59.06151 9.37225 32968 ft 549 kts 33°
2026-05-05 21:30 59.12123 9.46530 32969 ft 550 kts 33°
2026-05-05 21:31 59.17938 9.56235 32962 ft 556 kts 42°
2026-05-05 21:31 59.22619 9.68390 32941 ft 563 kts 53°
2026-05-05 21:32 59.26819 9.81326 32954 ft 565 kts 55°
2026-05-05 21:32 59.30954 9.94459 32943 ft 567 kts 55°
2026-05-05 21:33 59.35101 10.07564 32942 ft 566 kts 54°
2026-05-05 21:33 59.39240 10.20607 32938 ft 566 kts 54°
2026-05-05 21:34 59.43395 10.33742 32940 ft 566 kts 54°
2026-05-05 21:34 59.47399 10.46477 32997 ft 567 kts 55°
2026-05-05 21:35 59.51536 10.59714 32940 ft 568 kts 55°
2026-05-05 21:35 59.55661 10.72989 32932 ft 568 kts 55°
2026-05-05 21:36 59.59774 10.86302 32938 ft 569 kts 55°
2026-05-05 21:36 59.63876 10.99657 32937 ft 569 kts 55°
2026-05-05 21:37 59.67970 11.13062 32931 ft 569 kts 55°
2026-05-05 21:37 59.72322 11.26073 32933 ft 566 kts 50°
2026-05-05 21:38 59.76940 11.38705 32934 ft 566 kts 50°
2026-05-05 21:38 59.81525 11.51446 32929 ft 567 kts 51°
2026-05-05 21:39 59.86039 11.64311 32926 ft 567 kts 51°
2026-05-05 21:39 59.90515 11.77234 32926 ft 567 kts 51°
2026-05-05 21:40 59.94978 11.90192 32936 ft 567 kts 51°
2026-05-05 21:40 59.99436 12.03193 32920 ft 567 kts 51°
2026-05-05 21:41 60.03884 12.16230 32925 ft 567 kts 51°
2026-05-05 21:41 60.08315 12.29287 32925 ft 567 kts 52°
2026-05-05 21:42 60.12711 12.42315 32929 ft 567 kts 52°
2026-05-05 21:42 60.17124 12.55469 32963 ft 568 kts 52°
2026-05-05 21:43 60.21502 12.68598 32947 ft 565 kts 52°
2026-05-05 21:43 60.25870 12.81760 32924 ft 565 kts 52°
2026-05-05 21:44 60.30219 12.94941 32946 ft 565 kts 52°
2026-05-05 21:44 60.34559 13.08172 32946 ft 565 kts 52°
2026-05-05 21:45 60.38881 13.21423 32986 ft 565 kts 52°
2026-05-05 21:45 60.43182 13.34689 32937 ft 563 kts 52°
2026-05-05 21:46 60.47466 13.47978 32938 ft 563 kts 52°
2026-05-05 21:46 60.51731 13.61278 32937 ft 563 kts 53°
2026-05-05 21:47 60.55993 13.74647 32938 ft 564 kts 53°
2026-05-05 21:47 60.60244 13.88056 32942 ft 564 kts 53°
2026-05-05 21:48 60.64488 14.01526 32941 ft 564 kts 53°
2026-05-05 21:48 60.68007 14.12758 32943 ft 564 kts 53°
2026-05-05 21:49 60.72220 14.26273 32939 ft 565 kts 54°
2026-05-05 21:49 60.77157 14.41961 32922 ft 563 kts 52°
2026-05-05 21:50 60.80858 14.53044 32911 ft 563 kts 51°
2026-05-05 21:50 60.85304 14.66299 32914 ft 564 kts 52°
2026-05-05 21:51 60.89703 14.79628 32917 ft 564 kts 52°
2026-05-05 21:51 60.94078 14.93050 32922 ft 565 kts 52°
2026-05-05 21:52 61.00580 15.13168 32932 ft 565 kts 52°
2026-05-05 21:53 61.04943 15.26758 32935 ft 565 kts 52°
2026-05-05 21:53 61.09268 15.40310 32927 ft 564 kts 53°
2026-05-05 21:54 61.13577 15.53885 32928 ft 566 kts 53°
2026-05-05 21:54 61.17891 15.67559 32928 ft 567 kts 53°
2026-05-05 21:55 61.22166 15.81189 32923 ft 567 kts 54°
2026-05-05 21:55 61.26484 15.95040 32919 ft 567 kts 54°
2026-05-05 21:56 61.30750 16.08804 32927 ft 565 kts 54°
2026-05-05 21:56 61.34959 16.22472 32915 ft 563 kts 54°
2026-05-05 21:57 61.39177 16.36247 32900 ft 563 kts 54°
2026-05-05 21:57 61.43399 16.50113 32904 ft 567 kts 54°
2026-05-05 21:58 61.47624 16.64075 32897 ft 567 kts 55°
2026-05-05 21:58 61.51829 16.78063 32909 ft 566 kts 55°
2026-05-05 21:59 61.55989 16.91988 32896 ft 563 kts 55°
2026-05-05 21:59 61.60136 17.05945 32886 ft 563 kts 56°
2026-05-05 22:00 61.64235 17.19826 32891 ft 563 kts 56°
2026-05-05 22:00 61.68354 17.33863 32876 ft 564 kts 56°
2026-05-05 22:01 61.72483 17.48015 32909 ft 568 kts 56°
2026-05-05 22:01 61.76583 17.62166 32858 ft 563 kts 56°
2026-05-05 22:02 61.80643 17.76263 32875 ft 562 kts 56°
2026-05-05 22:02 61.84696 17.90422 32871 ft 562 kts 57°
2026-05-05 22:03 61.88750 18.04570 32848 ft 562 kts 56°
2026-05-05 22:03 61.92959 18.18530 32909 ft 561 kts 54°
2026-05-05 22:04 61.97179 18.32433 32856 ft 560 kts 55°
2026-05-05 22:04 62.01363 18.46421 32856 ft 560 kts 55°
2026-05-05 22:05 62.05491 18.60389 32853 ft 560 kts 56°
2026-05-05 22:05 62.09629 18.74494 32854 ft 560 kts 56°
2026-05-05 22:06 62.13753 18.88633 32840 ft 560 kts 56°
2026-05-05 22:06 62.17856 19.02787 32834 ft 558 kts 56°
2026-05-05 22:07 62.21929 19.16920 32838 ft 557 kts 56°
2026-05-05 22:07 62.25978 19.31059 32831 ft 558 kts 56°
2026-05-05 22:08 62.30041 19.45329 32829 ft 560 kts 56°
2026-05-05 22:08 62.34096 19.59668 32829 ft 561 kts 57°
2026-05-05 22:09 62.38131 19.74031 32818 ft 559 kts 57°
2026-05-05 22:09 62.42128 19.88347 32817 ft 557 kts 57°
2026-05-05 22:10 62.46085 20.02610 32815 ft 557 kts 57°
2026-05-05 22:10 62.50075 20.17082 32813 ft 557 kts 57°
2026-05-05 22:11 62.54005 20.31426 32804 ft 557 kts 57°
2026-05-05 22:11 62.57955 20.45935 32813 ft 558 kts 58°
2026-05-05 22:12 62.61878 20.60443 32798 ft 556 kts 58°
2026-05-05 22:12 62.65779 20.74964 32799 ft 556 kts 58°
2026-05-05 22:13 62.69663 20.89515 32790 ft 556 kts 58°
2026-05-05 22:13 62.73532 21.04104 32790 ft 556 kts 58°
2026-05-05 22:14 62.77380 21.18707 32809 ft 556 kts 58°
2026-05-05 22:14 62.81214 21.33358 32770 ft 553 kts 59°
2026-05-05 22:15 62.84994 21.47892 32774 ft 554 kts 59°
2026-05-05 22:15 62.88796 21.62606 32774 ft 555 kts 59°
2026-05-05 22:16 62.92575 21.77374 32774 ft 555 kts 60°
2026-05-05 22:16 62.96166 21.92366 32773 ft 555 kts 61°
2026-05-05 22:17 62.99691 22.07494 32772 ft 555 kts 62°
2026-05-05 22:17 63.03217 22.22603 32769 ft 555 kts 61°
2026-05-05 22:18 63.06753 22.37749 32766 ft 555 kts 61°
2026-05-05 22:18 63.10272 22.52904 32761 ft 555 kts 62°
2026-05-05 22:19 63.13780 22.68120 32763 ft 555 kts 62°
2026-05-05 22:19 63.17263 22.83339 32749 ft 554 kts 62°
2026-05-05 22:20 63.20722 22.98564 32760 ft 552 kts 62°
2026-05-05 22:20 63.24138 23.13709 32740 ft 552 kts 62°
2026-05-05 22:21 63.27578 23.29066 32750 ft 552 kts 62°
2026-05-05 22:21 63.30984 23.44384 32722 ft 552 kts 63°
2026-05-05 22:22 63.34354 23.59645 32740 ft 553 kts 63°
2026-05-05 22:22 63.37723 23.75011 32736 ft 551 kts 63°
2026-05-05 22:23 63.41070 23.90394 32729 ft 550 kts 63°
2026-05-05 22:23 63.44399 24.05808 32734 ft 550 kts 63°
2026-05-05 22:24 63.47708 24.21233 32728 ft 550 kts 64°
2026-05-05 22:24 63.51003 24.36714 32727 ft 551 kts 64°
2026-05-05 22:25 63.54284 24.52236 32722 ft 550 kts 64°
2026-05-05 22:25 63.57537 24.67747 32716 ft 550 kts 64°
2026-05-05 22:26 63.60784 24.83345 32708 ft 551 kts 64°
2026-05-05 22:26 63.64010 24.98954 32709 ft 551 kts 65°
2026-05-05 22:27 63.67224 25.14623 32697 ft 551 kts 65°
2026-05-05 22:27 63.70420 25.30325 32699 ft 551 kts 65°
2026-05-05 22:28 63.73579 25.45942 32700 ft 550 kts 65°
2026-05-05 22:28 63.76752 25.61755 32689 ft 549 kts 65°
2026-05-05 22:29 63.79869 25.77430 32691 ft 551 kts 66°
2026-05-05 22:29 63.83017 25.93375 32689 ft 552 kts 66°
2026-05-05 22:30 63.86116 26.09188 32688 ft 552 kts 66°
2026-05-05 22:30 63.89217 26.25129 32685 ft 552 kts 66°
2026-05-05 22:31 63.92288 26.41050 32681 ft 550 kts 66°
2026-05-05 22:31 63.95710 26.56591 32671 ft 549 kts 54°
2026-05-05 22:32 64.00228 26.70573 32675 ft 549 kts 51°
2026-05-05 22:32 64.04909 26.84344 32668 ft 549 kts 51°
2026-05-05 22:33 64.09603 26.98127 32667 ft 550 kts 51°
2026-05-05 22:33 64.14273 27.11970 32659 ft 550 kts 51°
2026-05-05 22:34 64.18932 27.25909 32631 ft 550 kts 51°
2026-05-05 22:34 64.22745 27.37376 32618 ft 550 kts 51°
2026-05-05 22:35 64.28056 27.53501 32608 ft 550 kts 52°
2026-05-05 22:35 64.31893 27.65221 32617 ft 550 kts 52°
2026-05-05 22:36 64.36487 27.79326 32597 ft 550 kts 52°
2026-05-05 22:36 64.41073 27.93492 32624 ft 550 kts 52°
2026-05-05 22:37 64.45639 28.07681 32629 ft 550 kts 52°
2026-05-05 22:37 64.50203 28.21937 32613 ft 550 kts 52°
2026-05-05 22:38 64.54735 28.36207 32624 ft 548 kts 53°
2026-05-05 22:38 64.59244 28.50511 32579 ft 547 kts 53°
2026-05-05 22:39 64.63740 28.64855 32616 ft 550 kts 53°
2026-05-05 22:39 64.68256 28.79347 32610 ft 551 kts 53°
2026-05-05 22:40 64.72746 28.93850 32607 ft 551 kts 53°
2026-05-05 22:40 64.77220 29.08397 32598 ft 549 kts 53°
2026-05-05 22:41 64.81663 29.22938 32591 ft 549 kts 53°
2026-05-05 22:41 64.86098 29.37545 32591 ft 549 kts 53°
2026-05-05 22:42 64.90518 29.52200 32583 ft 549 kts 53°
2026-05-05 22:42 64.94909 29.66931 32584 ft 549 kts 55°
2026-05-05 22:43 64.98981 29.82164 32573 ft 549 kts 58°
2026-05-05 22:43 65.02940 29.97620 32572 ft 549 kts 58°
2026-05-05 22:44 65.06928 30.13063 32559 ft 549 kts 58°
2026-05-05 22:44 65.10915 30.28427 32577 ft 552 kts 57°
2026-05-05 22:45 65.14939 30.43984 32568 ft 552 kts 58°
2026-05-05 22:45 65.18930 30.59534 32564 ft 551 kts 58°
2026-05-05 22:46 65.22907 30.75148 32555 ft 551 kts 58°
2026-05-05 22:46 65.26868 30.90811 32559 ft 551 kts 58°
2026-05-05 22:47 65.30804 31.06490 32555 ft 551 kts 58°
2026-05-05 22:47 65.34732 31.22246 32553 ft 550 kts 58°
2026-05-05 22:48 65.38633 31.38007 32546 ft 549 kts 59°
2026-05-05 22:48 65.42516 31.53811 32547 ft 549 kts 59°
2026-05-05 22:49 65.46376 31.69634 32541 ft 549 kts 59°
2026-05-05 22:49 65.50230 31.85545 32542 ft 551 kts 59°
2026-05-05 22:50 65.54083 32.01570 32530 ft 552 kts 59°
2026-05-05 22:50 65.57924 32.17610 32532 ft 551 kts 59°
2026-05-05 22:51 65.61777 32.33639 32524 ft 551 kts 59°
2026-05-05 22:51 65.65611 32.49690 32521 ft 551 kts 59°
2026-05-05 22:52 65.69403 32.65712 32513 ft 551 kts 59°
2026-05-05 22:52 65.73199 32.81879 32514 ft 550 kts 60°
2026-05-05 22:53 65.76968 32.98072 32506 ft 550 kts 60°
2026-05-05 22:53 65.80705 33.14328 32501 ft 550 kts 60°
2026-05-05 22:54 65.84416 33.30602 32495 ft 550 kts 60°
2026-05-05 22:54 65.88117 33.46949 32484 ft 550 kts 60°
2026-05-05 22:55 65.91815 33.63396 32486 ft 552 kts 60°
2026-05-05 22:55 65.95498 33.79904 32481 ft 552 kts 61°
2026-05-05 22:56 65.99124 33.96467 32470 ft 552 kts 62°
2026-05-05 22:56 66.02633 34.13239 32475 ft 552 kts 63°
2026-05-05 22:57 66.06176 34.29986 32461 ft 551 kts 61°
2026-05-05 22:57 66.09807 34.46621 32457 ft 550 kts 61°
2026-05-05 22:58 66.13416 34.63243 32451 ft 550 kts 62°
2026-05-05 22:58 66.16997 34.79952 32449 ft 550 kts 62°
2026-05-05 22:59 66.20554 34.96719 32443 ft 550 kts 62°
2026-05-05 22:59 66.24090 35.13529 32428 ft 550 kts 62°
2026-05-05 23:00 66.29341 35.38740 32441 ft 551 kts 62°
2026-05-05 23:00 66.32823 35.55724 32438 ft 551 kts 63°
2026-05-05 23:01 66.36278 35.72761 32438 ft 551 kts 63°
2026-05-05 23:01 66.39718 35.89846 32437 ft 551 kts 63°
2026-05-05 23:02 66.43146 36.06964 32444 ft 550 kts 63°
2026-05-05 23:02 66.46503 36.24142 32436 ft 549 kts 67°
2026-05-05 23:03 66.49045 36.42164 32436 ft 549 kts 72°
2026-05-05 23:03 66.51329 36.60413 32440 ft 549 kts 73°
2026-05-05 23:04 66.53559 36.78688 32441 ft 549 kts 73°
2026-05-05 23:04 66.55788 36.97022 32453 ft 549 kts 73°
2026-05-05 23:05 66.58006 37.15366 32440 ft 547 kts 73°
2026-05-05 23:05 66.60198 37.33685 32442 ft 547 kts 74°
2026-05-05 23:06 66.62365 37.52007 32436 ft 547 kts 74°
2026-05-05 23:06 66.64500 37.70268 32432 ft 547 kts 74°
2026-05-05 23:07 66.66627 37.88682 32434 ft 547 kts 74°
2026-05-05 23:07 66.68731 38.07123 32436 ft 547 kts 75°
2026-05-05 23:08 66.70811 38.25564 32423 ft 547 kts 75°
2026-05-05 23:08 66.72878 38.44116 32436 ft 550 kts 75°
2026-05-05 23:09 66.74932 38.62778 32437 ft 551 kts 75°
2026-05-05 23:09 66.76965 38.81478 32435 ft 550 kts 75°
2026-05-05 23:10 66.78972 39.00174 32447 ft 550 kts 76°
2026-05-05 23:10 66.80955 39.18889 32436 ft 549 kts 76°
2026-05-05 23:11 66.82913 39.37603 32438 ft 548 kts 76°
2026-05-05 23:11 66.84848 39.56344 32441 ft 548 kts 76°
2026-05-05 23:12 66.86761 39.75112 32440 ft 548 kts 76°
2026-05-05 23:12 66.88654 39.93932 32451 ft 551 kts 77°
2026-05-05 23:13 66.90539 40.12920 32439 ft 552 kts 77°
2026-05-05 23:13 66.92381 40.31736 32447 ft 550 kts 77°
2026-05-05 23:14 66.94208 40.50644 32442 ft 550 kts 77°
2026-05-05 23:14 66.96013 40.69608 32450 ft 550 kts 77°
2026-05-05 23:15 66.97797 40.88601 32444 ft 550 kts 77°
2026-05-05 23:15 66.99558 41.07620 32447 ft 550 kts 78°
2026-05-05 23:16 67.01290 41.26604 32450 ft 548 kts 78°
2026-05-05 23:16 67.03004 41.45656 32448 ft 550 kts 78°
2026-05-05 23:17 67.04700 41.64816 32452 ft 554 kts 78°
2026-05-05 23:17 67.06383 41.84088 32448 ft 553 kts 79°
2026-05-05 23:18 67.08039 42.03359 32448 ft 553 kts 79°
2026-05-05 23:18 67.09672 42.22650 32445 ft 552 kts 79°
2026-05-05 23:19 67.11279 42.41931 32451 ft 551 kts 79°
2026-05-05 23:19 67.12857 42.61183 32460 ft 551 kts 79°
2026-05-05 23:20 67.14420 42.80382 32455 ft 551 kts 79°
2026-05-05 23:20 67.15726 42.96457 32450 ft 552 kts 80°
2026-05-05 23:21 67.17292 43.16026 32459 ft 557 kts 80°
2026-05-05 23:21 67.18827 43.35579 32467 ft 556 kts 80°
2026-05-05 23:22 67.20323 43.54970 32464 ft 555 kts 80°
2026-05-05 23:22 67.21803 43.74499 32468 ft 555 kts 81°
2026-05-05 23:23 67.23260 43.94050 32467 ft 554 kts 81°
2026-05-05 23:23 67.24695 44.13658 32468 ft 554 kts 81°
2026-05-05 23:24 67.26103 44.33251 32475 ft 554 kts 81°
2026-05-05 23:24 67.27485 44.52810 32463 ft 554 kts 82°
2026-05-05 23:25 67.28844 44.72437 32471 ft 559 kts 82°
2026-05-05 23:25 67.30191 44.92262 32470 ft 560 kts 82°
2026-05-05 23:26 67.31518 45.12154 32470 ft 559 kts 82°
2026-05-05 23:26 67.32817 45.32023 32473 ft 559 kts 82°
2026-05-05 23:27 67.34092 45.51935 32475 ft 558 kts 82°
2026-05-05 23:27 67.35336 45.71751 32467 ft 557 kts 82°
2026-05-05 23:28 67.36557 45.91610 32471 ft 557 kts 83°
2026-05-05 23:28 67.37754 46.11486 32462 ft 558 kts 83°
2026-05-05 23:29 67.38932 46.31514 32471 ft 563 kts 83°
2026-05-05 23:29 67.40093 46.51682 32480 ft 564 kts 83°
2026-05-05 23:30 67.41227 46.71855 32467 ft 562 kts 83°
2026-05-05 23:30 67.42327 46.91829 32472 ft 561 kts 83°
2026-05-05 23:31 67.43414 47.12054 32464 ft 561 kts 84°
2026-05-05 23:31 67.44469 47.32193 32467 ft 561 kts 84°
2026-05-05 23:32 67.45499 47.52346 32467 ft 561 kts 84°
2026-05-05 23:32 67.46495 47.72371 32453 ft 561 kts 84°
2026-05-05 23:33 67.47482 47.92717 32463 ft 564 kts 84°
2026-05-05 23:33 67.48443 48.13034 32463 ft 564 kts 85°
2026-05-05 23:34 67.49371 48.33232 32462 ft 564 kts 85°
2026-05-05 23:34 67.50278 48.53583 32466 ft 564 kts 85°
2026-05-05 23:35 67.51159 48.73942 32466 ft 564 kts 85°
2026-05-05 23:35 67.52014 48.94279 32463 ft 564 kts 85°
2026-05-05 23:36 67.52844 49.14669 32463 ft 564 kts 86°
2026-05-05 23:36 67.53649 49.35068 32452 ft 565 kts 86°
2026-05-05 23:37 67.54430 49.55573 32458 ft 569 kts 86°
2026-05-05 23:37 67.55190 49.76194 32460 ft 569 kts 86°
2026-05-05 23:38 67.55923 49.96773 32457 ft 567 kts 86°
2026-05-05 23:38 67.56627 50.17312 32459 ft 566 kts 86°
2026-05-05 23:39 67.57304 50.37846 32457 ft 566 kts 87°
2026-05-05 23:39 67.57955 50.58387 32455 ft 566 kts 87°
2026-05-05 23:40 67.58581 50.78931 32453 ft 566 kts 87°
2026-05-05 23:40 67.59182 50.99522 32454 ft 567 kts 88°
2026-05-05 23:41 67.59757 51.20168 32449 ft 569 kts 88°
2026-05-05 23:41 67.60306 51.40859 32452 ft 569 kts 88°
2026-05-05 23:42 67.60830 51.61551 32450 ft 569 kts 88°
2026-05-05 23:42 67.61327 51.82249 32452 ft 568 kts 89°
2026-05-05 23:43 67.61795 52.02843 32447 ft 568 kts 89°
2026-05-05 23:43 67.62239 52.23551 32449 ft 569 kts 89°
2026-05-05 23:44 67.62659 52.44356 32447 ft 570 kts 89°
2026-05-05 23:44 67.63052 52.65135 32445 ft 570 kts 89°
2026-05-05 23:45 67.63419 52.85911 32441 ft 569 kts 90°
2026-05-05 23:45 67.63814 53.06687 32416 ft 571 kts 85°
2026-05-05 23:46 67.65391 53.27140 32429 ft 572 kts 76°
2026-05-05 23:46 67.67445 53.47406 32426 ft 573 kts 75°
2026-05-05 23:47 67.69540 53.67603 32426 ft 573 kts 75°
2026-05-05 23:47 67.71582 53.87928 32418 ft 573 kts 76°
2026-05-05 23:48 67.73567 54.08263 32417 ft 573 kts 76°
2026-05-05 23:48 67.75518 54.28591 32409 ft 572 kts 76°
2026-05-05 23:49 67.77446 54.48986 32408 ft 571 kts 76°
2026-05-05 23:49 67.79333 54.69223 32396 ft 571 kts 76°
2026-05-05 23:50 67.81215 54.89704 32395 ft 576 kts 77°
2026-05-05 23:50 67.83086 55.10390 32415 ft 578 kts 76°
2026-05-05 23:51 67.84929 55.31075 32382 ft 576 kts 76°
2026-05-05 23:51 67.86741 55.51737 32402 ft 575 kts 77°
2026-05-05 23:52 67.88526 55.72424 32377 ft 575 kts 77°
2026-05-05 23:52 67.90282 55.93107 32384 ft 575 kts 77°
2026-05-05 23:53 67.92016 56.13879 32384 ft 574 kts 77°
2026-05-05 23:53 67.93712 56.34531 32384 ft 571 kts 77°
2026-05-05 23:54 67.95379 56.55165 32385 ft 570 kts 77°
2026-05-05 23:54 67.97019 56.75831 32383 ft 570 kts 78°
2026-05-05 23:55 67.98634 56.96530 32387 ft 570 kts 78°
2026-05-05 23:55 68.00218 57.17188 32387 ft 567 kts 78°
2026-05-05 23:56 68.01769 57.37792 32384 ft 565 kts 78°
2026-05-05 23:56 68.03278 57.58214 32389 ft 568 kts 78°
2026-05-05 23:57 68.04774 57.78809 32391 ft 569 kts 78°
2026-05-05 23:57 68.06255 57.99576 32395 ft 568 kts 78°
2026-05-05 23:58 68.07707 58.20324 32382 ft 566 kts 79°
2026-05-05 23:58 68.09126 58.41020 32390 ft 565 kts 79°
2026-05-05 23:59 68.10518 58.61724 32394 ft 565 kts 79°
2026-05-05 23:59 68.11887 58.82488 32397 ft 565 kts 80°
2026-05-06 00:00 68.13230 59.03275 32395 ft 565 kts 80°
2026-05-06 00:00 68.14545 59.24053 32386 ft 565 kts 80°
2026-05-06 00:01 68.15858 59.44844 32389 ft 565 kts 80°
2026-05-06 00:01 68.17197 59.65491 32401 ft 565 kts 80°
2026-05-06 00:02 68.18525 59.86302 32398 ft 565 kts 80°
2026-05-06 00:02 68.19818 60.07139 32382 ft 564 kts 81°
2026-05-06 00:03 68.21079 60.28014 32400 ft 566 kts 81°
2026-05-06 00:03 68.22316 60.48973 32397 ft 567 kts 81°
2026-05-06 00:04 68.23528 60.69953 32399 ft 567 kts 81°
2026-05-06 00:04 68.24516 60.87421 32404 ft 567 kts 82°
2026-05-06 00:05 68.26251 61.18968 32405 ft 566 kts 82°
2026-05-06 00:06 68.27371 61.39970 32399 ft 566 kts 82°
2026-05-06 00:06 68.28469 61.61059 32393 ft 566 kts 83°
2026-05-06 00:07 68.29538 61.82126 32411 ft 566 kts 83°
2026-05-06 00:07 68.30580 62.03212 32414 ft 566 kts 83°
2026-05-06 00:08 68.31595 62.24313 32414 ft 566 kts 83°
2026-05-06 00:08 68.32584 62.45431 32411 ft 566 kts 84°
2026-05-06 00:09 68.33547 62.66599 32407 ft 566 kts 84°
2026-05-06 00:09 68.34481 62.87724 32379 ft 566 kts 84°
2026-05-06 00:10 68.35392 63.08972 32421 ft 569 kts 84°
2026-05-06 00:10 68.36278 63.30279 32420 ft 569 kts 85°
2026-05-06 00:11 68.37138 63.51608 32428 ft 569 kts 85°
2026-05-06 00:11 68.37971 63.72961 32425 ft 569 kts 85°
2026-05-06 00:12 68.38770 63.94179 32423 ft 569 kts 85°
2026-05-06 00:12 68.39553 64.15693 32425 ft 569 kts 85°
2026-05-06 00:13 68.40298 64.36932 32429 ft 569 kts 85°
2026-05-06 00:13 68.41021 64.58322 32426 ft 569 kts 86°
2026-05-06 00:14 68.41716 64.79731 32436 ft 569 kts 86°
2026-05-06 00:14 68.42385 65.01150 32435 ft 569 kts 86°
2026-05-06 00:15 68.43025 65.22574 32441 ft 568 kts 86°
2026-05-06 00:15 68.43637 65.43970 32441 ft 568 kts 86°
2026-05-06 00:16 68.44222 65.65413 32438 ft 568 kts 87°
2026-05-06 00:16 68.44780 65.86837 32445 ft 569 kts 87°
2026-05-06 00:17 68.45310 66.08322 32443 ft 570 kts 88°
2026-05-06 00:17 68.45814 66.29811 32432 ft 569 kts 88°
2026-05-06 00:18 68.46290 66.51282 32454 ft 568 kts 88°
2026-05-06 00:18 68.46738 66.72752 32444 ft 568 kts 88°
2026-05-06 00:19 68.47170 66.94130 32455 ft 568 kts 89°
2026-05-06 00:19 68.47587 67.15580 32467 ft 568 kts 88°
2026-05-06 00:20 68.47977 67.37115 32458 ft 570 kts 89°
2026-05-06 00:20 68.48340 67.58742 32460 ft 571 kts 89°
2026-05-06 00:21 68.48673 67.80341 32463 ft 571 kts 89°
2026-05-06 00:21 68.48980 68.01945 32464 ft 570 kts 89°
2026-05-06 00:22 68.49238 68.23596 32481 ft 571 kts 89°
2026-05-06 00:22 68.49468 68.45228 32474 ft 571 kts 89°
2026-05-06 00:23 68.49675 68.66883 32485 ft 573 kts 90°
2026-05-06 00:23 68.49856 68.88662 32486 ft 574 kts 90°
2026-05-06 00:24 68.50009 69.10285 32498 ft 574 kts 90°
2026-05-06 00:24 68.50134 69.32054 32500 ft 574 kts 90°
2026-05-06 00:25 68.50230 69.53827 32515 ft 574 kts 90°
2026-05-06 00:25 68.50299 69.75599 32515 ft 574 kts 91°
2026-05-06 00:26 68.50339 69.97369 32517 ft 574 kts 91°
2026-05-06 00:26 68.50351 70.19134 32519 ft 574 kts 91°
2026-05-06 00:27 68.50334 70.40952 32536 ft 573 kts 91°
2026-05-06 00:27 68.50290 70.62681 32546 ft 573 kts 91°
2026-05-06 00:28 68.50218 70.84256 32535 ft 573 kts 91°
2026-05-06 00:28 68.50119 71.05969 32561 ft 573 kts 92°
2026-05-06 00:29 68.49989 71.27680 32555 ft 573 kts 92°
2026-05-06 00:29 68.49820 71.49369 32564 ft 572 kts 92°
2026-05-06 00:30 68.49621 71.71054 32573 ft 572 kts 92°
2026-05-06 00:30 68.49397 71.92738 32580 ft 572 kts 92°
2026-05-06 00:31 68.49145 72.14419 32582 ft 572 kts 92°
2026-05-06 00:31 68.48866 72.36132 32594 ft 572 kts 92°
2026-05-06 00:32 68.48558 72.57803 32602 ft 572 kts 93°
2026-05-06 00:32 68.48224 72.79465 32602 ft 572 kts 93°
2026-05-06 00:33 68.47860 73.01154 32606 ft 572 kts 93°
2026-05-06 00:33 68.47469 73.22797 32616 ft 572 kts 94°
2026-05-06 00:34 68.47050 73.44426 32617 ft 572 kts 93°
2026-05-06 00:34 68.46596 73.66050 32622 ft 572 kts 94°
2026-05-06 00:35 68.45815 73.87580 32630 ft 572 kts 97°
2026-05-06 00:35 68.44868 74.09055 32636 ft 572 kts 97°
2026-05-06 00:36 68.43939 74.30527 32636 ft 572 kts 97°
2026-05-06 00:36 68.43023 74.52025 32644 ft 573 kts 97°
2026-05-06 00:37 68.42096 74.73419 32654 ft 573 kts 97°
2026-05-06 00:37 68.41135 74.94901 32663 ft 573 kts 97°
2026-05-06 00:38 68.40144 75.16363 32658 ft 573 kts 98°
2026-05-06 00:38 68.39124 75.37810 32687 ft 573 kts 98°
2026-05-06 00:39 68.38077 75.59241 32674 ft 574 kts 98°
2026-05-06 00:39 68.37002 75.80674 32679 ft 574 kts 98°
2026-05-06 00:40 68.35896 76.02127 32691 ft 574 kts 98°
2026-05-06 00:40 68.34766 76.23519 32688 ft 574 kts 98°
2026-05-06 00:41 68.33608 76.44888 32711 ft 574 kts 98°
2026-05-06 00:41 68.32422 76.66240 32661 ft 574 kts 98°
2026-05-06 00:42 68.31209 76.87578 32710 ft 574 kts 98°
2026-05-06 00:42 68.29967 77.08923 32708 ft 574 kts 99°
2026-05-06 00:43 68.28700 77.30204 32718 ft 574 kts 99°
2026-05-06 00:43 68.27406 77.51456 32718 ft 574 kts 99°
2026-05-06 00:44 68.26093 77.72549 32733 ft 574 kts 99°
2026-05-06 00:44 68.24744 77.93769 32733 ft 574 kts 99°
2026-05-06 00:45 68.23369 78.14960 32738 ft 574 kts 100°
2026-05-06 00:45 68.21966 78.36127 32738 ft 574 kts 100°
2026-05-06 00:46 68.20533 78.57310 32744 ft 574 kts 100°
2026-05-06 00:46 68.19075 78.78454 32737 ft 575 kts 100°
2026-05-06 00:47 68.17587 78.99580 32760 ft 575 kts 101°
2026-05-06 00:47 68.16062 79.20672 32754 ft 575 kts 101°
2026-05-06 00:48 68.14509 79.41738 32763 ft 575 kts 101°
2026-05-06 00:48 68.12930 79.62810 32774 ft 575 kts 101°
2026-05-06 00:49 68.11330 79.83786 32779 ft 575 kts 101°
2026-05-06 00:49 68.09976 80.01246 32765 ft 575 kts 102°
2026-05-06 00:50 68.08322 80.22231 32780 ft 575 kts 102°
2026-05-06 00:50 68.06644 80.43155 32762 ft 575 kts 102°
2026-05-06 00:51 68.04939 80.64056 32779 ft 576 kts 102°
2026-05-06 00:51 68.03205 80.84951 32778 ft 576 kts 102°
2026-05-06 00:52 68.01438 81.05810 32785 ft 576 kts 103°
2026-05-06 00:52 67.99634 81.26639 32781 ft 576 kts 103°
2026-05-06 00:53 67.97806 81.47430 32807 ft 576 kts 103°
2026-05-06 00:53 67.95952 81.68192 32807 ft 576 kts 103°
2026-05-06 00:54 67.94067 81.88984 32803 ft 576 kts 103°
2026-05-06 00:54 67.92164 82.09642 32811 ft 576 kts 103°
2026-05-06 00:55 67.90243 82.30199 32810 ft 576 kts 103°
2026-05-06 00:55 67.88274 82.50936 32822 ft 576 kts 104°
2026-05-06 00:56 67.86305 82.71371 32821 ft 574 kts 104°
2026-05-06 00:56 67.84305 82.91841 32831 ft 574 kts 104°
2026-05-06 00:57 67.82279 83.12270 32825 ft 574 kts 104°
2026-05-06 00:57 67.80228 83.32661 32830 ft 574 kts 104°
2026-05-06 00:58 67.78152 83.53025 32848 ft 573 kts 104°
2026-05-06 00:58 67.76057 83.73282 32846 ft 571 kts 105°
2026-05-06 00:59 67.73939 83.93481 32847 ft 572 kts 105°
2026-05-06 00:59 67.71788 84.13723 32852 ft 573 kts 105°
2026-05-06 01:00 67.69614 84.33904 32859 ft 573 kts 105°
2026-05-06 01:00 67.67417 84.54031 32856 ft 571 kts 105°
2026-05-06 01:01 67.65203 84.74055 32860 ft 570 kts 106°
2026-05-06 01:01 67.62966 84.94026 32879 ft 570 kts 106°
2026-05-06 01:02 67.60704 85.13964 32859 ft 570 kts 106°
2026-05-06 01:02 67.58414 85.33897 32868 ft 570 kts 106°
2026-05-06 01:03 67.56121 85.53611 32878 ft 569 kts 107°
2026-05-06 01:03 67.53825 85.73409 32876 ft 569 kts 107°
2026-05-06 01:04 67.51520 85.93209 32875 ft 569 kts 107°
2026-05-06 01:04 67.49190 86.12943 32833 ft 568 kts 107°
2026-05-06 01:05 67.46831 86.32637 32906 ft 569 kts 107°
2026-05-06 01:05 67.44450 86.52270 32888 ft 568 kts 107°
2026-05-06 01:06 67.42083 86.71874 32892 ft 567 kts 105°
2026-05-06 01:06 67.40064 86.91717 32872 ft 567 kts 103°
2026-05-06 01:07 67.38125 87.11591 32906 ft 567 kts 104°
2026-05-06 01:07 67.36116 87.31300 32896 ft 567 kts 104°
2026-05-06 01:08 67.34025 87.51116 32898 ft 566 kts 105°
2026-05-06 01:08 67.31920 87.70708 32898 ft 566 kts 105°
2026-05-06 01:09 67.29786 87.90330 32901 ft 566 kts 105°
2026-05-06 01:09 67.27630 88.09920 32903 ft 566 kts 105°
2026-05-06 01:10 67.25452 88.29475 32921 ft 566 kts 106°
2026-05-06 01:10 67.23249 88.48996 32913 ft 566 kts 106°
2026-05-06 01:11 67.21023 88.68483 32841 ft 566 kts 106°
2026-05-06 01:11 67.18769 88.87965 32919 ft 566 kts 106°
2026-05-06 01:12 67.16496 89.07373 32921 ft 566 kts 107°
2026-05-06 01:12 67.14186 89.26731 32927 ft 566 kts 107°
2026-05-06 01:13 67.11804 89.46011 32928 ft 566 kts 108°
2026-05-06 01:13 67.09394 89.65282 32928 ft 566 kts 108°
2026-05-06 01:14 67.05759 89.94064 32927 ft 566 kts 108°
2026-05-06 01:14 67.03305 90.13248 32927 ft 566 kts 108°
2026-05-06 01:15 67.00847 90.32248 32932 ft 566 kts 108°
2026-05-06 01:15 66.98333 90.51459 32932 ft 566 kts 109°
2026-05-06 01:16 66.95812 90.70508 32935 ft 566 kts 109°
2026-05-06 01:16 66.93269 90.89514 32926 ft 566 kts 109°
2026-05-06 01:17 66.90700 91.08501 32927 ft 566 kts 109°
2026-05-06 01:17 66.88132 91.27282 32917 ft 565 kts 109°
2026-05-06 01:18 66.85520 91.46171 32931 ft 566 kts 109°
2026-05-06 01:18 66.82886 91.65021 32930 ft 566 kts 110°
2026-05-06 01:19 66.80230 91.83832 32934 ft 566 kts 110°
2026-05-06 01:19 66.77551 92.02601 32924 ft 565 kts 110°
2026-05-06 01:20 66.74857 92.21282 32927 ft 565 kts 110°
2026-05-06 01:20 66.72136 92.39954 32926 ft 565 kts 110°
2026-05-06 01:21 66.69407 92.58490 32920 ft 565 kts 110°
2026-05-06 01:21 66.66647 92.77051 32925 ft 565 kts 111°
2026-05-06 01:22 66.63861 92.95588 32899 ft 566 kts 111°
2026-05-06 01:22 66.61053 93.14090 32918 ft 566 kts 111°
2026-05-06 01:23 66.58215 93.32607 32920 ft 566 kts 111°
2026-05-06 01:23 66.55364 93.51028 32899 ft 566 kts 111°
2026-05-06 01:24 66.52504 93.69317 32852 ft 566 kts 112°
2026-05-06 01:24 66.49608 93.87662 32907 ft 566 kts 112°
2026-05-06 01:25 66.46692 94.05954 32905 ft 566 kts 112°
2026-05-06 01:25 66.43757 94.24194 32906 ft 565 kts 112°
2026-05-06 01:26 66.40800 94.42387 32916 ft 566 kts 113°
2026-05-06 01:26 66.37817 94.60572 32899 ft 567 kts 113°
2026-05-06 01:27 66.34803 94.78769 32904 ft 567 kts 113°
2026-05-06 01:27 66.31773 94.96897 32890 ft 567 kts 114°
2026-05-06 01:28 66.28723 95.14977 32897 ft 567 kts 114°
2026-05-06 01:28 66.25654 95.33016 32881 ft 567 kts 114°
2026-05-06 01:29 66.22554 95.51056 32883 ft 568 kts 114°
2026-05-06 01:29 66.19438 95.69034 32895 ft 568 kts 114°
2026-05-06 01:30 66.16301 95.86965 32877 ft 568 kts 114°
2026-05-06 01:30 66.13144 96.04846 32821 ft 568 kts 115°
2026-05-06 01:31 66.09975 96.22640 32880 ft 565 kts 115°
2026-05-06 01:31 66.06798 96.40321 32876 ft 564 kts 115°
2026-05-06 01:32 66.03600 96.57955 32872 ft 564 kts 115°
2026-05-06 01:32 66.00383 96.75539 32870 ft 564 kts 115°
2026-05-06 01:33 65.97148 96.93073 32860 ft 563 kts 116°
2026-05-06 01:33 65.93919 97.10423 32871 ft 561 kts 116°
2026-05-06 01:34 65.90662 97.27775 32859 ft 561 kts 116°
2026-05-06 01:34 65.87385 97.45079 32860 ft 561 kts 116°
2026-05-06 01:35 65.84089 97.62342 32847 ft 561 kts 116°
2026-05-06 01:35 65.81326 97.76701 32848 ft 561 kts 116°
2026-05-06 01:36 65.77993 97.93893 32847 ft 561 kts 117°